Lynchburg, VA

12:22 PM EST on November 22, 2019 (GMT -0500)
Lynchburg Regional-Glenn

Weather History for KLYH - September, 2019

Change the Weather History Date:

Sunday, September 1, 2019

  Actual Average Record
Temperature  
Mean Temperature 78 °F 72 °F  
Max Temperature 87 °F 83 °F 102 °F (1932)
Min Temperature 69 °F 61 °F 47 °F (1946)
Degree Days  
Heating Degree Days 0 0  
Month to date heating degree days 0 0  
Since 1 July heating degree days 0 3  
Cooling Degree Days 13 7  
Month to date cooling degree days 13 7  
Year to date cooling degree days 1228 905  
Growing Degree Days 28 (Base 50)    
Moisture  
Dew Point 65 °F    
Average Humidity 68    
Maximum Humidity 90    
Minimum Humidity 42    
Precipitation  
Precipitation T in 0.13 in 3.26 in (2006)
Month to date precipitation T 0.13  
Year to date precipitation 27.58 28.06  
Snow  
Snow 0.00 in - - ()
Month to date snowfall 0.0  
Since 1 July snowfall 0.0  
Since 1 September snowfall 0.0  
Snow Depth 0.00 in    
Sea Level Pressure  
Sea Level Pressure 30.19 in    
Wind  
Wind Speed 6 mph ()    
Max Wind Speed 13 mph    
Max Gust Speed 22 mph    
Visibility 10.0 miles    
Events      
T = Trace of Precipitation, MM = Missing Value Source: Averaged Metar Reports

Daily Weather History Graph

Daily Weather History Graph

Search for Another Location

Airport or City:

Astronomy

Sep. 01, 2019 Rise Set
Actual Time 6:47 AM EDT 7:45 PM EDT
Civil Twilight 6:20 AM EDT 8:12 PM EDT
Nautical Twilight 5:48 AM EDT 8:44 PM EDT
Astronomical Twilight 5:15 AM EDT 9:16 PM EDT
Moon 9:12 AM EDT (9/1) 9:35 PM EDT (9/1)
Length of Visible Light 13h 52m
Length of Day
12h 58m
Waxing Crescent, 8% of the Moon is Illuminated
Sep 1
Waxing Crescent
Sep 5
First Quarter
Sep 14
Full
Sep 21
Last Quarter
Sep 28
New

Hourly Weather History & Observations

Time (EDT) Temp. Heat Index Dew Point Humidity Pressure Visibility Wind Dir Wind Speed Gust Speed Precip Events Conditions
12:54 AM 75.0 °F - 66.9 °F 76% 30.21 in 10.0 mi NE 5.8 mph - N/A   Mostly Cloudy
1:54 AM 73.9 °F - 68.0 °F 82% 30.21 in 10.0 mi NNE 5.8 mph - N/A   Mostly Cloudy
2:54 AM 73.0 °F - 66.9 °F 81% 30.22 in 10.0 mi NNE 5.8 mph - N/A   Overcast
3:54 AM 73.0 °F - 66.0 °F 79% 30.21 in 10.0 mi NE 9.2 mph - N/A   Mostly Cloudy
4:54 AM 71.1 °F - 66.0 °F 84% 30.19 in 10.0 mi NNE 6.9 mph - N/A   Clear
5:54 AM 70.0 °F - 66.0 °F 87% 30.19 in 10.0 mi NNE 5.8 mph - N/A   Clear
6:54 AM 69.1 °F - 66.0 °F 90% 30.21 in 10.0 mi NNE 6.9 mph - N/A   Clear
7:54 AM 71.1 °F - 66.9 °F 87% 30.23 in 10.0 mi ENE 5.8 mph - N/A   Clear
8:54 AM 73.0 °F - 66.9 °F 81% 30.25 in 10.0 mi NNE 6.9 mph - N/A   Scattered Clouds
9:54 AM 75.9 °F - 66.0 °F 71% 30.24 in 10.0 mi ENE 6.9 mph - N/A   Clear
10:54 AM 79.0 °F - 66.0 °F 64% 30.25 in 10.0 mi NE 5.8 mph - N/A   Partly Cloudy
11:54 AM 81.0 °F 82.5 °F 64.0 °F 56% 30.25 in 10.0 mi Variable 6.9 mph - N/A   Partly Cloudy
12:54 PM 84.0 °F 85.4 °F 64.0 °F 51% 30.22 in 10.0 mi ENE 10.4 mph - N/A   Mostly Cloudy
1:54 PM 84.0 °F 84.9 °F 63.0 °F 49% 30.21 in 10.0 mi ESE 10.4 mph - N/A   Mostly Cloudy
2:54 PM 82.0 °F 83.0 °F 62.1 °F 51% 30.19 in 10.0 mi ESE 8.1 mph - N/A   Scattered Clouds
3:54 PM 86.0 °F 86.1 °F 61.0 °F 43% 30.16 in 10.0 mi SE 10.4 mph - N/A   Partly Cloudy
4:54 PM 84.9 °F 85.0 °F 61.0 °F 44% 30.15 in 10.0 mi Variable 3.5 mph - N/A   Clear
5:54 PM 84.0 °F 84.4 °F 61.0 °F 46% 30.14 in 10.0 mi ESE 8.1 mph - N/A   Partly Cloudy
6:54 PM 82.0 °F 83.0 °F 62.1 °F 51% 30.14 in 10.0 mi ESE 9.2 mph - N/A   Clear
7:54 PM 73.9 °F - 64.0 °F 71% 30.15 in 10.0 mi Calm Calm - N/A   Partly Cloudy
8:54 PM 73.9 °F - 64.0 °F 71% 30.15 in 10.0 mi East 3.5 mph - N/A   Mostly Cloudy
10:54 PM 73.0 °F - 66.0 °F 79% 30.15 in 10.0 mi ESE 3.5 mph - N/A   Clear
11:54 PM 72.0 °F - 66.0 °F 81% 30.14 in 10.0 mi ESE 3.5 mph - N/A   Clear